Flag for U.S.A. Weather past 2 weeks in Alexandria, Virginia, U.S.A.

Now
60 °F

Passing clouds.


Feels Like: 60 °F
Forecast: 46 / 62 °F
Wind: 8 mph from Northeast

Location: Reagan National Airport


UV Index: 5 (Moderate)

Visibility: 10 mi


Pressure: 30.29 "Hg

Humidity: 33%

Dew point: 31 °F

Location of AlexandriaLocation

Historic Weather in Alexandria

°F

Alexandria temperature yesterday

Maximum temperature yesterday: 56 °F (at 5:52 PM)
Minimum temperature yesterday: 40 °F (at 2:52 AM)
Average temperature yesterday: 47 °F

Past Weeks' High & Low Weather Summary

 TemperatureHumidityPressure
High85 °F (Apr 13, 3:52 PM)94% (Apr 7, 4:54 PM)30.66 "Hg (Apr 7, 4:54 PM)
Low34 °F (Apr 16, 3:52 AM)14% (Apr 6, 3:52 PM)29.49 "Hg (Apr 8, 6:52 AM)
Average57 °F54%30.07 "Hg
* Reported Apr 4 8:52 PM — Apr 19 8:52 PM, Alexandria, Weather by CustomWeather, © 2014

Note: Actual official high and low records may vary slightly from our data, if they occured in-between our weather recording intervals... More about our weather records

Advertising

Historic Weather Conditions — Data for Previous 24 hours

 ConditionsComfort  
Time TempWeatherWind HumidityBarometerVisibility
8:52 PM
Apr 19
62 °FHigh level clouds.7 mph29%30.27 "Hg10 mi
7:52 PM63 °FOvercast.10 mph24%30.25 "Hg10 mi
6:52 PM66 °FMore clouds than sun.10 mph27%30.24 "Hg10 mi
5:52 PM68 °FHigh level clouds.8 mph26%30.23 "Hg10 mi
4:52 PM70 °FHigh level clouds.10 mph25%30.22 "Hg10 mi
3:52 PM71 °FHigh level clouds.10 mph29%30.22 "Hg10 mi
2:52 PM70 °FHigh level clouds.9 mph30%30.24 "Hg10 mi
1:52 PM68 °FHigh level clouds.3 mph31%30.26 "Hg10 mi
12:52 PM67 °FHigh level clouds.9 mph35%30.27 "Hg10 mi
11:52 AM63 °FHigh level clouds.7 mph43%30.28 "Hg10 mi
10:52 AM58 °FPartly sunny.No wind50%30.31 "Hg10 mi
9:52 AM54 °FPartly sunny.No wind55%30.32 "Hg10 mi
8:52 AM50 °FHigh level clouds.6 mph66%30.31 "Hg10 mi
7:52 AM48 °FHigh level clouds.3 mph74%30.30 "Hg10 mi
6:52 AM47 °FHigh level clouds.3 mph74%30.28 "Hg10 mi
5:52 AM47 °FHigh level clouds.5 mph74%30.26 "Hg10 mi
4:52 AM48 °FHigh level clouds.No wind71%30.24 "Hg10 mi
3:52 AM49 °FHigh level clouds.No wind66%30.24 "Hg10 mi
2:52 AM48 °FHigh level clouds.6 mph68%30.26 "Hg10 mi
1:52 AM49 °FHigh level clouds.6 mph64%30.27 "Hg10 mi
12:52 AM49 °FHigh level clouds.5 mph64%30.30 "Hg10 mi
11:52 PM
Apr 18
50 °FHigh level clouds.6 mph59%30.29 "Hg10 mi
10:52 PM50 °FHigh level clouds.No wind57%30.30 "Hg10 mi
Weather by CustomWeather, © 2014

See weather overview